Wind_Speed
41 42 42 42 42 43 43 43 43 43 43 44 44 44 44 44 44 43 43 43 44 43 43 43 43 43 43 43 43 43 43 42 42 42 42 42 42 41 42 42 41 40 41
43 43 43 43 43 43 44 44 44 44 44 45 45 45 45 45 45 45 44 44 44 44 44 44 45 44 44 44 45 44 44 44 44 44 44 44 44 43 43 44 44 43 43
44 44 44 44 44 44 45 45 46 45 45 45 45 46 46 46 46 46 46 45 45 45 45 45 44 44 44 45 45 45 45 45 45 45 45 46 46 46 44 44 45 44 44
43 44 44 45 45 45 45 45 46 46 46 45 46 46 47 46 46 46 47 46 46 45 45 46 46 45 45 45 46 45 46 46 46 46 46 46 47 47 46 45 45 46 46
41 42 43 44 44 45 45 45 46 47 46 46 46 46 46 46 47 47 47 47 47 47 47 47 47 48 47 47 48 47 47 48 47 47 47 47 47 48 48 46 46 47 47
41 41 42 42 43 44 44 45 46 46 46 46 47 46 47 46 47 48 48 48 48 48 48 48 48 49 49 49 50 50 51 50 50 50 50 50 49 49 49 49 48 48 48
40 41 41 41 42 43 44 44 45 45 46 46 47 47 47 47 48 48 48 48 49 49 50 50 50 51 51 51 52 52 52 52 52 52 53 52 52 51 52 52 51 50 50
39 40 40 40 41 42 43 43 44 44 45 45 46 47 48 48 49 49 49 49 50 50 51 51 52 52 52 52 52 53 52 53 54 54 54 54 54 54 54 54 53 52 51
37 38 39 39 40 40 41 41 42 43 44 45 46 47 48 49 49 50 50 50 50 51 52 52 53 52 52 52 53 53 53 54 53 54 54 55 55 55 55 54 54 54 53
36 36 37 38 39 40 41 41 42 43 44 45 45 46 47 48 49 49 50 51 51 52 52 52 53 53 53 53 53 53 53 53 52 53 53 53 54 54 54 54 54 54 54
34 35 36 37 38 39 40 41 41 42 43 44 45 46 46 47 48 49 49 49 49 50 51 52 52 53 53 53 53 53 54 53 52 52 53 54 54 54 55 54 54 54 54
34 35 35 37 38 39 40 40 41 41 42 43 44 44 45 47 48 49 49 50 50 49 50 51 52 52 52 53 53 53 54 54 54 53 53 53 54 55 55 55 54 54 53
34 35 36 37 38 38 39 40 40 40 41 41 42 43 44 46 47 49 49 50 50 51 50 50 51 51 52 53 53 54 54 54 54 53 52 52 53 54 54 54 54 53 53
31 33 35 36 37 37 38 39 39 40 40 41 41 42 43 44 46 47 48 49 50 51 51 52 51 51 52 52 52 52 52 53 53 53 52 52 53 53 53 53 53 52 52
31 30 32 34 35 36 37 37 38 39 39 40 41 42 43 44 44 46 47 48 49 50 50 50 51 51 51 51 50 50 50 51 52 52 52 52 51 51 51 50 50 51 51
30 31 31 32 33 34 35 36 37 37 38 39 40 41 42 43 44 44 46 47 47 48 48 48 49 49 50 50 50 50 49 49 49 50 50 51 51 51 50 50 50 50 50
30 30 30 30 31 32 33 34 35 36 37 38 39 40 41 42 43 43 43 44 46 47 47 48 47 47 48 49 49 50 50 50 49 49 49 49 50 50 49 49 50 50 50
29 29 29 29 30 30 31 32 33 35 36 37 38 38 39 40 41 42 43 43 44 45 45 46 46 46 46 47 47 48 48 48 49 49 49 48 48 48 48 48 48 48 49
28 28 28 29 29 30 31 31 32 34 35 37 37 37 38 39 39 40 41 42 42 43 43 45 45 45 45 45 46 46 46 46 46 47 47 46 46 45 46 46 47 47 47
27 28 28 29 29 29 30 30 31 32 34 36 36 37 37 38 38 39 39 40 41 41 41 42 42 43 43 44 44 44 45 45 45 45 45 44 43 43 44 45 45 45 46
27 27 28 28 28 28 29 29 30 31 32 33 35 36 36 36 37 37 38 38 38 38 39 39 39 39 40 41 42 42 43 42 42 41 41 41 42 42 42 43 43 43 43
27 27 28 28 28 28 28 28 29 30 31 31 32 33 34 35 36 36 36 36 37 37 37 36 36 37 37 38 39 39 40 40 40 39 39 40 40 41 41 41 41 41 42
28 27 27 28 28 28 28 28 28 29 29 29 30 31 31 33 33 34 34 35 35 35 35 35 35 35 35 35 36 36 37 37 38 38 38 39 39 39 39 39 40 40 40
27 27 27 28 28 28 28 28 28 28 28 29 29 30 30 31 32 33 33 33 34 34 34 34 34 33 33 33 34 34 35 35 36 36 36 36 36 37 37 38 38 39 39
26 26 27 27 27 28 28 28 28 28 28 28 29 29 29 29 30 30 30 31 31 31 32 32 32 33 33 33 33 33 33 33 33 34 34 34 35 35 35 35 36 36 36
25 25 26 26 26 27 27 28 28 28 28 28 29 29 30 29 29 29 29 29 29 30 30 30 31 31 31 31 31 31 32 32 32 32 32 32 32 33 32 32 33 34 34
Wind_Direction
248 249 250 251 251 251 252 253 253 254 254 254 255 255 256 257 258 259 259 259 259 260 259 259 259 260 261 261 261 261 260 260 261 261 261 261 261 262 262 262 263 263 264
249 250 251 252 252 253 253 253 254 253 254 255 255 256 256 257 258 259 259 259 260 260 258 259 259 260 261 261 261 261 261 261 261 261 261 260 260 262 262 263 263 263 263
252 251 252 252 253 253 254 255 254 254 255 255 255 255 256 257 257 258 259 260 261 261 259 258 259 259 260 261 261 262 262 262 261 261 262 262 261 261 262 263 262 263 263
253 253 254 254 253 254 254 255 255 255 255 255 255 255 255 256 257 258 258 260 261 261 260 259 258 258 259 260 261 262 262 262 263 262 261 262 262 261 262 263 262 262 263
254 254 255 255 254 255 255 255 256 256 255 255 256 255 255 256 256 257 258 259 259 259 259 259 258 259 259 260 261 261 262 263 263 262 261 261 262 262 262 262 262 262 263
255 255 255 256 256 256 255 255 255 255 255 255 256 256 256 257 257 258 258 258 258 259 259 259 259 259 260 261 261 262 262 263 262 262 262 262 263 263 263 262 263 263 263
256 257 257 257 258 257 257 257 256 255 255 256 257 257 257 257 258 258 259 259 259 259 260 260 260 261 261 262 262 263 264 263 263 263 263 263 264 263 264 264 265 265 264
257 258 258 258 258 259 259 258 257 256 256 256 257 257 257 257 257 258 259 260 260 260 260 260 262 262 262 262 263 263 263 263 263 263 263 263 264 264 265 264 265 265 265
259 259 258 258 259 259 259 258 257 257 256 257 257 258 258 257 257 258 258 259 260 261 261 261 262 263 263 263 263 263 263 263 263 263 263 263 264 264 264 265 265 265 265
259 260 259 258 258 258 258 258 258 258 258 258 259 259 259 258 258 258 259 259 261 261 261 261 261 262 262 263 263 263 264 263 263 263 262 263 263 264 264 265 265 265 266
260 260 259 258 259 259 259 260 260 260 259 259 260 260 260 259 259 259 260 260 261 262 261 262 262 263 264 264 264 263 263 263 262 262 262 262 263 264 264 264 264 265 265
261 261 261 260 260 260 260 261 261 260 260 261 261 261 261 260 260 260 261 260 261 262 263 263 263 264 264 264 264 264 263 263 262 262 263 262 263 263 263 263 263 263 264
263 262 262 263 262 261 261 261 261 261 261 262 262 262 262 261 261 262 262 261 262 263 263 264 264 264 264 264 264 264 263 263 263 263 263 263 263 263 263 263 262 262 261
265 264 263 263 263 262 263 262 261 262 262 263 264 264 264 263 263 263 263 262 262 263 263 263 264 264 264 265 264 264 263 263 263 263 263 264 264 263 262 261 261 260 260
267 267 266 265 265 264 264 263 263 263 263 263 264 265 265 266 266 265 264 264 264 264 264 264 264 264 264 264 264 263 263 263 263 263 263 264 263 262 261 261 260 260 260
267 268 268 267 267 267 266 265 264 265 265 265 265 266 267 267 267 267 266 266 266 266 265 265 265 264 264 264 263 263 263 263 263 263 263 264 263 262 261 261 260 260 260
267 267 268 268 269 269 268 267 266 266 267 267 267 267 267 268 268 269 269 268 267 266 265 265 265 265 265 264 265 265 265 265 264 265 264 264 263 262 261 261 261 261 260
268 267 268 270 271 271 270 270 269 268 269 269 270 269 269 269 269 269 270 270 269 268 266 266 266 265 264 263 264 265 265 265 265 264 264 263 263 263 262 262 262 262 262
270 270 271 272 272 272 272 271 271 271 272 272 272 271 271 271 271 271 270 270 269 269 268 267 266 265 263 263 262 262 263 264 264 264 263 263 263 263 263 262 262 262 262
270 272 274 274 274 275 274 273 273 273 273 273 273 273 273 273 273 272 271 270 269 269 269 269 267 265 263 263 263 263 263 264 265 265 264 263 263 262 263 263 263 263 263
271 273 275 276 276 277 277 276 275 275 275 274 274 274 274 274 273 274 273 272 271 270 269 269 267 266 264 263 263 263 264 264 265 265 264 264 263 263 263 264 264 264 263
272 273 275 277 277 278 279 278 278 278 278 278 277 276 276 275 275 275 274 274 273 272 272 271 269 267 265 264 264 264 264 264 264 264 263 262 262 262 262 263 263 263 263
273 274 275 276 277 278 279 280 280 281 281 281 280 279 279 277 277 276 275 275 274 273 273 272 270 268 267 266 265 265 265 264 263 263 263 262 262 262 262 262 261 261 261
273 274 275 276 277 279 279 280 281 282 282 282 283 282 281 281 280 278 277 276 275 274 273 272 270 269 267 267 267 267 267 266 265 265 264 263 263 263 262 261 260 260 262
274 275 276 276 277 279 279 280 281 282 282 283 284 284 284 284 282 280 279 278 276 275 274 272 270 268 268 267 267 267 267 266 266 265 264 263 262 262 262 261 260 260 261
275 275 276 277 278 280 280 281 281 282 283 284 284 284 285 285 283 282 280 280 278 276 274 272 271 269 268 267 266 266 266 267 266 264 263 263 262 261 261 262 260 259 259
Height
5727 5729 5731 5733 5735 5737 5739 5741 5742 5744 5745 5747 5749 5751 5752 5753 5754 5755 5756 5757 5758 5759 5761 5762 5764 5765 5766 5767 5768 5769 5770 5771 5772 5773 5774 5775 5776 5776 5778 5778 5779 5779 5779
5717 5719 5721 5723 5724 5726 5728 5730 5731 5733 5734 5736 5738 5739 5741 5742 5743 5744 5745 5746 5747 5748 5749 5751 5752 5754 5755 5756 5758 5759 5760 5761 5762 5763 5763 5765 5767 5767 5767 5768 5769 5769 5770
5705 5707 5709 5711 5713 5715 5717 5718 5720 5722 5723 5725 5726 5728 5730 5731 5732 5733 5734 5735 5735 5736 5737 5739 5741 5743 5744 5745 5746 5748 5749 5750 5751 5751 5753 5754 5755 5756 5757 5758 5758 5759 5759
5695 5696 5698 5700 5702 5704 5705 5707 5708 5710 5711 5713 5715 5716 5718 5720 5721 5722 5723 5724 5724 5724 5725 5727 5729 5731 5733 5734 5735 5736 5737 5738 5739 5740 5741 5742 5743 5745 5746 5747 5747 5748 5748
5684 5685 5687 5688 5690 5692 5694 5695 5697 5698 5700 5701 5703 5705 5706 5707 5709 5710 5711 5712 5713 5713 5714 5716 5718 5720 5721 5722 5723 5724 5725 5726 5727 5728 5729 5730 5731 5732 5734 5736 5736 5736 5737
5673 5675 5676 5677 5679 5680 5682 5683 5685 5687 5688 5690 5691 5693 5694 5696 5697 5698 5699 5700 5701 5702 5703 5704 5706 5708 5709 5710 5711 5712 5713 5713 5714 5715 5716 5717 5719 5720 5721 5723 5723 5724 5725
5663 5664 5665 5666 5668 5669 5670 5672 5673 5675 5676 5677 5679 5680 5682 5683 5685 5686 5687 5688 5689 5690 5691 5692 5694 5695 5696 5697 5698 5699 5700 5701 5701 5702 5703 5704 5705 5706 5707 5709 5710 5711 5712
5652 5653 5654 5655 5656 5658 5659 5660 5661 5663 5664 5665 5667 5668 5669 5671 5672 5673 5674 5675 5676 5677 5678 5679 5681 5682 5683 5684 5685 5686 5687 5687 5688 5689 5690 5691 5692 5693 5693 5695 5696 5697 5699
5642 5642 5644 5645 5646 5647 5648 5649 5650 5651 5652 5653 5654 5655 5656 5657 5659 5660 5661 5663 5663 5664 5665 5666 5667 5668 5669 5670 5671 5672 5673 5674 5675 5676 5676 5677 5678 5679 5679 5680 5681 5683 5684
5632 5633 5633 5634 5635 5636 5636 5637 5638 5639 5640 5641 5642 5642 5643 5644 5645 5646 5648 5649 5650 5651 5652 5653 5654 5655 5656 5656 5657 5658 5659 5660 5661 5662 5662 5663 5664 5665 5665 5666 5667 5668 5669
5622 5622 5623 5623 5624 5625 5625 5626 5626 5627 5628 5629 5629 5630 5630 5631 5632 5633 5634 5635 5636 5637 5638 5639 5640 5641 5642 5642 5643 5644 5645 5646 5646 5647 5648 5649 5650 5650 5651 5652 5653 5654 5654
5611 5612 5612 5612 5613 5613 5614 5614 5614 5615 5616 5616 5617 5617 5618 5618 5619 5620 5621 5622 5623 5623 5624 5624 5625 5626 5627 5628 5629 5630 5630 5631 5632 5633 5633 5634 5635 5636 5636 5637 5638 5639 5640
5601 5601 5601 5602 5602 5602 5603 5603 5603 5603 5604 5604 5604 5605 5605 5605 5606 5607 5607 5608 5609 5609 5609 5610 5611 5612 5613 5614 5614 5615 5615 5616 5617 5618 5619 5619 5620 5620 5621 5622 5623 5624 5626
5591 5591 5591 5591 5591 5591 5591 5592 5592 5592 5592 5592 5592 5592 5592 5592 5593 5593 5594 5594 5595 5595 5595 5596 5596 5597 5598 5599 5599 5600 5600 5601 5602 5603 5603 5604 5605 5605 5606 5607 5608 5610 5611
5581 5581 5581 5581 5580 5580 5580 5581 5581 5581 5581 5581 5581 5581 5580 5580 5580 5580 5580 5580 5581 5581 5581 5582 5582 5583 5584 5584 5585 5585 5586 5586 5587 5588 5588 5589 5589 5590 5591 5593 5594 5596 5597
5572 5572 5572 5571 5571 5570 5570 5570 5570 5570 5570 5570 5570 5569 5569 5568 5568 5568 5567 5567 5567 5567 5567 5568 5568 5569 5569 5570 5570 5571 5572 5572 5573 5573 5574 5574 5575 5576 5578 5579 5580 5582 5584
5563 5563 5563 5562 5561 5561 5560 5560 5560 5560 5559 5559 5558 5558 5557 5557 5556 5555 5555 5554 5554 5554 5554 5554 5555 5555 5555 5556 5556 5557 5558 5558 5559 5560 5560 5561 5562 5563 5564 5566 5567 5568 5570
5554 5554 5553 5553 5552 5552 5551 5550 5550 5549 5548 5548 5547 5546 5545 5545 5544 5543 5543 5542 5541 5541 5541 5541 5541 5541 5541 5542 5542 5543 5543 5544 5545 5546 5547 5548 5549 5549 5551 5552 5554 5555 5557
5545 5545 5545 5544 5543 5542 5541 5541 5540 5539 5538 5537 5536 5535 5534 5533 5532 5531 5530 5529 5528 5528 5527 5527 5527 5527 5528 5528 5528 5529 5530 5531 5532 5533 5533 5534 5536 5537 5538 5539 5541 5543 5544
5537 5536 5536 5535 5534 5533 5532 5531 5530 5529 5527 5526 5525 5523 5522 5521 5520 5519 5518 5517 5516 5515 5515 5514 5514 5514 5514 5515 5515 5516 5517 5518 5519 5520 5521 5522 5523 5523 5524 5526 5528 5529 5531
5528 5528 5527 5526 5525 5524 5523 5522 5520 5519 5517 5516 5514 5513 5511 5510 5508 5507 5506 5505 5504 5503 5502 5502 5502 5501 5502 5502 5503 5503 5504 5505 5507 5508 5508 5509 5510 5511 5512 5513 5515 5516 5517
5520 5519 5518 5517 5516 5515 5514 5513 5511 5509 5508 5506 5504 5502 5500 5499 5497 5496 5495 5494 5493 5492 5491 5490 5490 5490 5490 5490 5490 5491 5492 5493 5495 5496 5497 5498 5498 5499 5500 5501 5502 5503 5504
5511 5510 5510 5509 5507 5506 5505 5504 5502 5500 5499 5497 5495 5493 5490 5488 5487 5485 5484 5483 5482 5481 5480 5480 5480 5479 5479 5479 5479 5480 5481 5482 5483 5484 5485 5486 5486 5487 5488 5489 5490 5491 5492
5502 5502 5501 5500 5499 5498 5496 5495 5493 5492 5490 5488 5486 5483 5481 5479 5477 5475 5474 5473 5471 5470 5470 5469 5469 5469 5469 5469 5469 5470 5470 5471 5472 5473 5474 5474 5475 5475 5476 5477 5478 5479 5481
5494 5493 5492 5491 5490 5489 5488 5486 5484 5483 5481 5479 5477 5474 5472 5470 5468 5466 5464 5463 5461 5460 5460 5459 5459 5459 5460 5460 5460 5460 5460 5461 5462 5462 5463 5463 5464 5465 5465 5466 5467 5468 5469
5486 5485 5484 5483 5482 5480 5479 5477 5475 5474 5472 5470 5468 5465 5463 5461 5459 5457 5455 5453 5452 5451 5450 5449 5449 5449 5449 5449 5450 5450 5450 5451 5451 5452 5453 5453 5454 5455 5455 5456 5457 5458 5459